| time (UTC) | temp F | wind direction | speed MPH | gust MPH | rain 1hr in | rain 24hr in | rain mn in | humidity % | barometer mb |
| 20260510234850 | 64 | 116 | 0.0 | 1.0 | 0.00 | 0.00 | 0.00 | 78 | 1013.2 |
| 20260510234349 | 64 | 116 | 0.0 | 1.0 | 0.00 | 0.00 | 0.00 | 77 | 1013.2 |
| 20260510233850 | 64 | 116 | 1.0 | 1.0 | 0.00 | 0.00 | 0.00 | 77 | 1013.2 |
| 20260510233349 | 64 | 116 | 1.0 | 1.0 | 0.00 | 0.00 | 0.00 | 77 | 1013.3 |
| 20260510232849 | 64 | 116 | 0.0 | 1.0 | 0.00 | 0.00 | 0.00 | 78 | 1013.3 |
| 20260510232349 | 64 | 116 | 0.0 | 1.0 | 0.00 | 0.00 | 0.00 | 77 | 1013.5 |
| 20260510231849 | 64 | 116 | 0.0 | 1.0 | 0.00 | 0.00 | 0.00 | 77 | 1013.5 |
| 20260510231349 | 64 | 116 | 0.0 | 1.0 | 0.00 | 0.00 | 0.00 | 76 | 1013.6 |
| 20260510230843 | 64 | 116 | 0.0 | 1.0 | 0.00 | 0.00 | 0.00 | 76 | 1013.5 |
| 20260510230337 | 64 | 116 | 0.0 | 1.0 | 0.00 | 0.00 | 0.00 | 76 | 1013.5 |
| 20260510230049 | 65 | 116 | 0.0 | 1.0 | 0.00 | 0.00 | 0.00 | 75 | 1013.5 |
| 20260510225324 | 65 | 116 | 0.0 | 1.0 | 0.00 | 0.00 | 0.00 | 75 | 1013.6 |
| 20260510224818 | 65 | 116 | 0.0 | 1.0 | 0.00 | 0.00 | 0.00 | 76 | 1013.6 |
| 20260510224532 | 65 | 116 | 0.0 | 1.0 | 0.00 | 0.00 | 0.00 | 76 | 1013.7 |
| 20260510223807 | 65 | 116 | 0.0 | 1.0 | 0.00 | 0.00 | 0.00 | 77 | 1013.7 |
| 20260510223518 | 64 | 116 | 0.0 | 1.0 | 0.00 | 0.00 | 0.00 | 76 | 1013.7 |
| 20260510222755 | 64 | 116 | 0.0 | 1.0 | 0.00 | 0.00 | 0.00 | 76 | 1013.7 |
| 20260510222510 | 65 | 116 | 0.0 | 1.0 | 0.00 | 0.00 | 0.00 | 76 | 1013.8 |
| 20260510221743 | 65 | 116 | 0.0 | 1.0 | 0.00 | 0.00 | 0.00 | 76 | 1013.7 |
| 20260510221502 | 65 | 116 | 0.0 | 1.0 | 0.00 | 0.00 | 0.00 | 77 | 1013.7 |
| 20260510220731 | 65 | 116 | 0.0 | 1.0 | 0.00 | 0.00 | 0.00 | 77 | 1013.7 |
| 20260510220225 | 65 | 116 | 0.0 | 1.0 | 0.00 | 0.00 | 0.00 | 77 | 1013.8 |
| 20260510215719 | 65 | 116 | 0.0 | 1.0 | 0.00 | 0.00 | 0.00 | 77 | 1013.8 |
| 20260510215213 | 65 | 116 | 0.0 | 1.0 | 0.00 | 0.00 | 0.00 | 76 | 1013.8 |
| 20260510214710 | 65 | 116 | 1.0 | 2.0 | 0.00 | 0.00 | 0.00 | 76 | 1013.7 |
| 20260510214202 | 65 | 116 | 0.0 | 2.0 | 0.00 | 0.00 | 0.00 | 76 | 1013.6 |
| 20260510213655 | 65 | 116 | 0.0 | 1.0 | 0.00 | 0.00 | 0.00 | 76 | 1013.7 |
| 20260510213411 | 65 | 116 | 0.0 | 2.0 | 0.00 | 0.00 | 0.00 | 76 | 1013.8 |
| 20260510212643 | 65 | 116 | 1.0 | 2.0 | 0.00 | 0.00 | 0.00 | 76 | 1013.7 |
| 20260510212137 | 65 | 116 | 1.0 | 2.0 | 0.00 | 0.00 | 0.00 | 76 | 1013.7 |
| 20260510211631 | 65 | 116 | 0.0 | 1.0 | 0.00 | 0.00 | 0.00 | 76 | 1013.8 |
| 20260510211125 | 65 | 116 | 0.0 | 1.0 | 0.00 | 0.00 | 0.00 | 76 | 1013.8 |
| 20260510210619 | 65 | 116 | 0.0 | 2.0 | 0.00 | 0.00 | 0.00 | 76 | 1013.9 |
| 20260510210345 | 65 | 116 | 0.0 | 2.0 | 0.00 | 0.00 | 0.00 | 75 | 1013.9 |
| 20260510205607 | 65 | 116 | 0.0 | 2.0 | 0.00 | 0.00 | 0.00 | 75 | 1014.0 |
| 20260510205330 | 66 | 116 | 1.0 | 2.0 | 0.00 | 0.00 | 0.00 | 75 | 1013.9 |
| 20260510204606 | 66 | 116 | 1.0 | 2.0 | 0.00 | 0.00 | 0.00 | 75 | 1013.9 |
| 20260510204106 | 66 | 131 | 1.0 | 2.0 | 0.00 | 0.00 | 0.00 | 74 | 1013.9 |
| 20260510203602 | 66 | 210 | 1.0 | 1.0 | 0.00 | 0.00 | 0.00 | 73 | 1013.8 |
| 20260510203102 | 66 | 210 | 0.0 | 1.0 | 0.00 | 0.00 | 0.00 | 71 | 1013.8 |
| 20260510202601 | 66 | 210 | 0.0 | 2.0 | 0.00 | 0.00 | 0.00 | 71 | 1013.8 |
| 20260510202102 | 66 | 210 | 1.0 | 2.0 | 0.00 | 0.00 | 0.00 | 71 | 1013.9 |
| 20260510201600 | 66 | 210 | 1.0 | 2.0 | 0.00 | 0.00 | 0.00 | 71 | 1013.9 |
| 20260510201059 | 66 | 210 | 1.0 | 2.0 | 0.00 | 0.00 | 0.00 | 72 | 1014.0 |
| 20260510200600 | 66 | 210 | 1.0 | 2.0 | 0.00 | 0.00 | 0.00 | 74 | 1014.0 |
| 20260510200057 | 66 | 210 | 0.0 | 2.0 | 0.00 | 0.00 | 0.00 | 76 | 1014.1 |
| 20260510195557 | 66 | 210 | 0.0 | 1.0 | 0.00 | 0.00 | 0.00 | 78 | 1014.0 |
| 20260510195058 | 66 | 210 | 0.0 | 0.0 | 0.00 | 0.00 | 0.00 | 77 | 1013.9 |
| 20260510194821 | 66 | 210 | 0.0 | 0.0 | 0.00 | 0.00 | 0.00 | 76 | 1014.0 |
| 20260510194320 | 66 | 210 | 0.0 | 1.0 | 0.00 | 0.00 | 0.00 | 76 | 1014.0 |
| 20260510193555 | 67 | 210 | 0.0 | 1.0 | 0.00 | 0.00 | 0.00 | 75 | 1013.9 |
| 20260510193049 | 67 | 210 | 0.0 | 2.0 | 0.00 | 0.00 | 0.00 | 75 | 1013.9 |
| 20260510192543 | 67 | 210 | 1.0 | 2.0 | 0.00 | 0.00 | 0.00 | 75 | 1013.8 |
| 20260510192037 | 67 | 210 | 0.0 | 2.0 | 0.00 | 0.00 | 0.00 | 75 | 1013.8 |
| 20260510191530 | 67 | 210 | 0.0 | 2.0 | 0.00 | 0.00 | 0.00 | 74 | 1013.8 |
| 20260510191024 | 67 | 210 | 1.0 | 3.0 | 0.00 | 0.00 | 0.00 | 74 | 1013.8 |
| 20260510190519 | 67 | 210 | 1.0 | 3.0 | 0.00 | 0.00 | 0.00 | 74 | 1013.7 |
| 20260510190012 | 67 | 227 | 1.0 | 4.0 | 0.00 | 0.00 | 0.00 | 74 | 1013.7 |
| 20260510185728 | 67 | 225 | 1.0 | 4.0 | 0.00 | 0.00 | 0.00 | 74 | 1013.6 |
| 20260510185001 | 67 | 209 | 1.0 | 4.0 | 0.00 | 0.00 | 0.00 | 73 | 1013.6 |
| 20260510184454 | 67 | 221 | 2.0 | 4.0 | 0.00 | 0.00 | 0.00 | 73 | 1013.5 |
| 20260510184441 | 68 | 212 | 2.0 | 4.0 | 0.00 | 0.00 | 0.00 | 73 | 1013.5 |
| 20260510183937 | 68 | 212 | 1.0 | 3.0 | 0.00 | 0.00 | 0.00 | 73 | 1013.4 |
| 20260510183154 | 68 | 215 | 1.0 | 3.0 | 0.00 | 0.00 | 0.00 | 71 | 1013.5 |
| 20260510182431 | 68 | 207 | 0.0 | 2.0 | 0.00 | 0.00 | 0.00 | 70 | 1013.5 |
| 20260510182144 | 69 | 208 | 0.0 | 1.0 | 0.00 | 0.00 | 0.00 | 70 | 1013.5 |
| 20260510181639 | 69 | 208 | 0.0 | 3.0 | 0.00 | 0.00 | 0.00 | 69 | 1013.5 |
| 20260510180912 | 69 | 208 | 1.0 | 3.0 | 0.00 | 0.00 | 0.00 | 68 | 1013.5 |
| 20260510180407 | 69 | 158 | 0.0 | 1.0 | 0.00 | 0.00 | 0.00 | 68 | 1013.4 |
| 20260510175901 | 69 | 155 | 0.0 | 0.0 | 0.00 | 0.00 | 0.00 | 68 | 1013.4 |
| 20260510175401 | 69 | 155 | 0.0 | 0.0 | 0.00 | 0.00 | 0.00 | 67 | 1013.4 |
| 20260510174901 | 69 | 155 | 0.0 | 1.0 | 0.00 | 0.00 | 0.00 | 66 | 1013.4 |
| 20260510174402 | 69 | 155 | 0.0 | 1.0 | 0.00 | 0.00 | 0.00 | 65 | 1013.3 |
| 20260510173859 | 70 | 155 | 0.0 | 1.0 | 0.00 | 0.00 | 0.00 | 65 | 1013.3 |
| 20260510173357 | 70 | 155 | 1.0 | 3.0 | 0.00 | 0.00 | 0.00 | 64 | 1013.3 |
| 20260510173333 | 70 | 155 | 1.0 | 4.0 | 0.00 | 0.00 | 0.00 | 64 | 1013.3 |
| 20260510172357 | 71 | 191 | 1.0 | 4.0 | 0.00 | 0.00 | 0.00 | 63 | 1013.3 |
| 20260510172121 | 71 | 144 | 1.0 | 4.0 | 0.00 | 0.00 | 0.00 | 62 | 1013.3 |
| 20260510171358 | 72 | 196 | 1.0 | 3.0 | 0.00 | 0.00 | 0.00 | 61 | 1013.2 |
| 20260510170857 | 72 | 209 | 2.0 | 5.0 | 0.00 | 0.00 | 0.00 | 61 | 1013.3 |
| 20260510170358 | 72 | 194 | 2.0 | 5.0 | 0.00 | 0.00 | 0.00 | 60 | 1013.3 |
| 20260510165857 | 72 | 149 | 2.0 | 4.0 | 0.00 | 0.00 | 0.00 | 60 | 1013.3 |
| 20260510165359 | 73 | 140 | 2.0 | 7.0 | 0.00 | 0.00 | 0.00 | 60 | 1013.3 |
| 20260510164857 | 73 | 139 | 3.0 | 7.0 | 0.00 | 0.00 | 0.00 | 60 | 1013.3 |
| 20260510164358 | 73 | 137 | 3.0 | 7.0 | 0.00 | 0.00 | 0.00 | 61 | 1013.3 |
| 20260510164117 | 73 | 144 | 3.0 | 8.0 | 0.00 | 0.00 | 0.00 | 61 | 1013.2 |
| 20260510163358 | 72 | 221 | 2.0 | 8.0 | 0.00 | 0.00 | 0.00 | 61 | 1013.2 |
| 20260510162851 | 72 | 219 | 2.0 | 5.0 | 0.00 | 0.00 | 0.00 | 63 | 1013.3 |
| 20260510162345 | 72 | 205 | 2.0 | 6.0 | 0.00 | 0.00 | 0.00 | 63 | 1013.3 |
| 20260510161838 | 71 | 223 | 3.0 | 7.0 | 0.00 | 0.00 | 0.00 | 62 | 1013.3 |
| 20260510161332 | 72 | 202 | 4.0 | 7.0 | 0.00 | 0.00 | 0.00 | 61 | 1013.3 |
| 20260510160827 | 72 | 222 | 4.0 | 7.0 | 0.00 | 0.00 | 0.00 | 61 | 1013.4 |
| 20260510160321 | 72 | 129 | 3.0 | 6.0 | 0.00 | 0.00 | 0.00 | 62 | 1013.4 |
| 20260510155814 | 72 | 191 | 4.0 | 9.0 | 0.00 | 0.00 | 0.00 | 62 | 1013.3 |
| 20260510155308 | 72 | 176 | 4.0 | 9.0 | 0.00 | 0.00 | 0.00 | 62 | 1013.3 |
| 20260510154802 | 73 | 219 | 5.0 | 9.0 | 0.00 | 0.00 | 0.00 | 62 | 1013.3 |
| 20260510154257 | 73 | 212 | 5.0 | 9.0 | 0.00 | 0.00 | 0.00 | 61 | 1013.3 |
| 20260510153751 | 74 | 233 | 4.0 | 9.0 | 0.00 | 0.00 | 0.00 | 60 | 1013.3 |
| 20260510153245 | 74 | 256 | 3.0 | 7.0 | 0.00 | 0.00 | 0.00 | 59 | 1013.2 |
| 20260510152740 | 73 | 203 | 4.0 | 8.0 | 0.00 | 0.00 | 0.00 | 61 | 1013.3 |
| 20260510152233 | 73 | 225 | 3.0 | 8.0 | 0.00 | 0.00 | 0.00 | 62 | 1013.4 |
| 20260510151733 | 72 | 134 | 3.0 | 6.0 | 0.00 | 0.00 | 0.00 | 65 | 1013.4 |
| 20260510151231 | 72 | 139 | 3.0 | 6.0 | 0.00 | 0.00 | 0.00 | 65 | 1013.4 |
| 20260510150731 | 72 | 157 | 3.0 | 8.0 | 0.00 | 0.00 | 0.00 | 65 | 1013.3 |
| 20260510150721 | 72 | 189 | 3.0 | 8.0 | 0.00 | 0.00 | 0.00 | 64 | 1013.3 |
| 20260510145731 | 73 | 123 | 3.0 | 8.0 | 0.00 | 0.00 | 0.00 | 64 | 1013.2 |
| 20260510145227 | 73 | 148 | 4.0 | 10.0 | 0.00 | 0.00 | 0.00 | 63 | 1013.4 |
| 20260510144729 | 73 | 169 | 3.0 | 10.0 | 0.00 | 0.00 | 0.00 | 63 | 1013.5 |
| 20260510144227 | 74 | 158 | 3.0 | 8.0 | 0.00 | 0.00 | 0.00 | 64 | 1013.4 |
| 20260510143727 | 74 | 205 | 3.0 | 7.0 | 0.00 | 0.00 | 0.00 | 65 | 1013.4 |
| 20260510143225 | 74 | 140 | 3.0 | 7.0 | 0.00 | 0.00 | 0.00 | 65 | 1013.4 |
| 20260510142725 | 73 | 241 | 3.0 | 7.0 | 0.00 | 0.00 | 0.00 | 66 | 1013.4 |
| 20260510142226 | 73 | 191 | 3.0 | 8.0 | 0.00 | 0.00 | 0.00 | 66 | 1013.3 |
| 20260510141725 | 73 | 115 | 4.0 | 10.0 | 0.00 | 0.00 | 0.00 | 67 | 1013.2 |
| 20260510141705 | 73 | 197 | 4.0 | 10.0 | 0.00 | 0.00 | 0.00 | 67 | 1013.3 |
| 20260510141232 | 73 | 197 | 4.0 | 10.0 | 0.00 | 0.00 | 0.00 | 67 | 1013.3 |
| 20260510140725 | 72 | 203 | 4.0 | 9.0 | 0.00 | 0.00 | 0.00 | 68 | 1013.3 |
| 20260510140224 | 72 | 214 | 5.0 | 14.0 | 0.00 | 0.00 | 0.00 | 69 | 1013.3 |
| 20260510135725 | 72 | 259 | 6.0 | 14.0 | 0.00 | 0.00 | 0.00 | 69 | 1013.4 |
| 20260510135447 | 72 | 189 | 6.0 | 13.0 | 0.00 | 0.00 | 0.00 | 68 | 1013.5 |
| 20260510134714 | 73 | 231 | 6.0 | 13.0 | 0.00 | 0.00 | 0.00 | 67 | 1013.5 |
| 20260510134206 | 73 | 172 | 5.0 | 11.0 | 0.00 | 0.00 | 0.00 | 65 | 1013.5 |
| 20260510133701 | 75 | 236 | 4.0 | 11.0 | 0.00 | 0.00 | 0.00 | 64 | 1013.5 |
| 20260510133159 | 76 | 209 | 3.0 | 8.0 | 0.00 | 0.00 | 0.00 | 61 | 1013.5 |
| 20260510132658 | 76 | 261 | 3.0 | 7.0 | 0.00 | 0.00 | 0.00 | 60 | 1013.5 |
| 20260510132200 | 76 | 199 | 3.0 | 6.0 | 0.00 | 0.00 | 0.00 | 57 | 1013.5 |
| 20260510131658 | 76 | 228 | 3.0 | 4.0 | 0.00 | 0.00 | 0.00 | 57 | 1013.5 |
| 20260510131158 | 76 | 214 | 2.0 | 4.0 | 0.00 | 0.00 | 0.00 | 57 | 1013.5 |
| 20260510130659 | 76 | 212 | 2.0 | 4.0 | 0.00 | 0.00 | 0.00 | 57 | 1013.7 |
| 20260510130209 | 76 | 214 | 2.0 | 6.0 | 0.00 | 0.00 | 0.00 | 57 | 1013.7 |
| 20260510125924 | 76 | 186 | 3.0 | 6.0 | 0.00 | 0.00 | 0.00 | 57 | 1013.8 |
| 20260510125200 | 76 | 198 | 3.0 | 6.0 | 0.00 | 0.00 | 0.00 | 55 | 1013.8 |
| 20260510124659 | 76 | 212 | 2.0 | 4.0 | 0.00 | 0.00 | 0.00 | 54 | 1013.9 |
| 20260510124159 | 76 | 211 | 3.0 | 6.0 | 0.00 | 0.00 | 0.00 | 54 | 1014.0 |
| 20260510124131 | 77 | 256 | 2.0 | 6.0 | 0.00 | 0.00 | 0.00 | 54 | 1014.2 |
| 20260510123914 | 77 | 256 | 2.0 | 6.0 | 0.00 | 0.00 | 0.00 | 54 | 1014.2 |
| 20260510123753 | 76 | 214 | 3.0 | 6.0 | 0.00 | 0.00 | 0.00 | 54 | 1014.1 |
| 20260510123426 | 77 | 256 | 2.0 | 6.0 | 0.00 | 0.00 | 0.00 | 54 | 1014.2 |
| 20260510123201 | 77 | 256 | 2.0 | 6.0 | 0.00 | 0.00 | 0.00 | 54 | 1014.2 |
| 20260510123149 | 77 | 212 | 3.0 | 6.0 | 0.00 | 0.00 | 0.00 | 56 | 1014.3 |
| 20260510122154 | 76 | 204 | 3.0 | 6.0 | 0.00 | 0.00 | 0.00 | 55 | 1014.4 |
| 20260510121654 | 76 | 212 | 3.0 | 6.0 | 0.00 | 0.00 | 0.00 | 56 | 1014.6 |
| 20260510121154 | 76 | 204 | 3.0 | 6.0 | 0.00 | 0.00 | 0.00 | 56 | 1014.5 |
| 20260510120655 | 76 | 212 | 4.0 | 7.0 | 0.00 | 0.00 | 0.00 | 56 | 1014.6 |
| 20260510120419 | 76 | 223 | 4.0 | 7.0 | 0.00 | 0.00 | 0.00 | 55 | 1014.7 |
| 20260510115655 | 77 | 221 | 3.0 | 7.0 | 0.00 | 0.00 | 0.00 | 53 | 1014.8 |
| 20260510115155 | 77 | 207 | 3.0 | 7.0 | 0.00 | 0.00 | 0.00 | 54 | 1014.9 |
| 20260510114655 | 77 | 258 | 4.0 | 9.0 | 0.00 | 0.00 | 0.00 | 56 | 1014.9 |
| 20260510114413 | 76 | 207 | 4.0 | 9.0 | 0.00 | 0.00 | 0.00 | 54 | 1014.9 |
| 20260510113654 | 78 | 199 | 3.0 | 7.0 | 0.00 | 0.00 | 0.00 | 55 | 1014.9 |
| 20260510113154 | 78 | 202 | 2.0 | 7.0 | 0.00 | 0.00 | 0.00 | 54 | 1014.9 |
| 20260510112655 | 78 | 205 | 2.0 | 5.0 | 0.00 | 0.00 | 0.00 | 53 | 1014.9 |
| 20260510112154 | 78 | 246 | 2.0 | 5.0 | 0.00 | 0.00 | 0.00 | 54 | 1014.9 |
| 20260510111920 | 78 | 205 | 2.0 | 5.0 | 0.00 | 0.00 | 0.00 | 54 | 1014.9 |
| 20260510111154 | 78 | 183 | 2.0 | 5.0 | 0.00 | 0.00 | 0.00 | 55 | 1014.9 |
| 20260510110914 | 77 | 240 | 1.0 | 4.0 | 0.00 | 0.00 | 0.00 | 56 | 1015.0 |
| 20260510110411 | 76 | 224 | 2.0 | 5.0 | 0.00 | 0.00 | 0.00 | 58 | 1015.1 |
| 20260510105645 | 75 | 237 | 3.0 | 5.0 | 0.00 | 0.00 | 0.00 | 59 | 1015.1 |
| 20260510105140 | 75 | 222 | 3.0 | 6.0 | 0.00 | 0.00 | 0.00 | 60 | 1015.1 |
| 20260510104636 | 75 | 241 | 4.0 | 7.0 | 0.00 | 0.00 | 0.00 | 61 | 1015.2 |
| 20260510104128 | 74 | 276 | 6.0 | 8.0 | 0.00 | 0.00 | 0.00 | 60 | 1015.2 |
| 20260510103622 | 74 | 263 | 5.0 | 8.0 | 0.00 | 0.00 | 0.00 | 57 | 1015.3 |
| 20260510103115 | 75 | 245 | 3.0 | 8.0 | 0.00 | 0.00 | 0.00 | 59 | 1015.3 |
| 20260510102609 | 74 | 288 | 4.0 | 8.0 | 0.00 | 0.00 | 0.00 | 60 | 1015.4 |
| 20260510102329 | 74 | 259 | 6.0 | 11.0 | 0.00 | 0.00 | 0.00 | 62 | 1015.5 |
| 20260510101605 | 74 | 251 | 6.0 | 11.0 | 0.00 | 0.00 | 0.00 | 60 | 1015.5 |
| 20260510101102 | 74 | 268 | 5.0 | 9.0 | 0.00 | 0.00 | 0.00 | 58 | 1015.5 |
| 20260510100826 | 74 | 318 | 5.0 | 7.0 | 0.00 | 0.00 | 0.00 | 59 | 1015.4 |
| 20260510095602 | 74 | 209 | 4.0 | 6.0 | 0.00 | 0.00 | 0.00 | 60 | 1015.4 |
| 20260510095100 | 74 | 250 | 4.0 | 7.0 | 0.00 | 0.00 | 0.00 | 58 | 1015.3 |
| 20260510094601 | 74 | 303 | 4.0 | 7.0 | 0.00 | 0.00 | 0.00 | 61 | 1015.3 |
| 20260510094101 | 74 | 259 | 4.0 | 7.0 | 0.00 | 0.00 | 0.00 | 59 | 1015.5 |
| 20260510093601 | 74 | 268 | 4.0 | 7.0 | 0.00 | 0.00 | 0.00 | 59 | 1015.5 |
| 20260510093100 | 73 | 269 | 4.0 | 7.0 | 0.00 | 0.00 | 0.00 | 62 | 1015.6 |
| 20260510092559 | 73 | 255 | 3.0 | 6.0 | 0.00 | 0.00 | 0.00 | 64 | 1015.6 |
| 20260510092057 | 73 | 250 | 3.0 | 6.0 | 0.00 | 0.00 | 0.00 | 64 | 1015.7 |
| 20260510091556 | 73 | 236 | 4.0 | 7.0 | 0.00 | 0.00 | 0.00 | 64 | 1015.7 |
| 20260510091057 | 72 | 259 | 4.0 | 7.0 | 0.00 | 0.00 | 0.00 | 62 | 1015.8 |
| 20260510090556 | 73 | 262 | 4.0 | 7.0 | 0.00 | 0.00 | 0.00 | 63 | 1015.8 |
| 20260510090057 | 72 | 269 | 4.0 | 7.0 | 0.00 | 0.00 | 0.00 | 62 | 1015.8 |
| 20260510085556 | 72 | 307 | 4.0 | 7.0 | 0.00 | 0.00 | 0.00 | 63 | 1015.8 |
| 20260510085050 | 72 | 259 | 4.0 | 7.0 | 0.00 | 0.00 | 0.00 | 62 | 1015.8 |
| 20260510084543 | 72 | 267 | 4.0 | 7.0 | 0.00 | 0.00 | 0.00 | 62 | 1015.9 |
| 20260510084037 | 72 | 299 | 3.0 | 7.0 | 0.00 | 0.00 | 0.00 | 62 | 1015.9 |
| 20260510083532 | 71 | 265 | 4.0 | 7.0 | 0.00 | 0.00 | 0.00 | 62 | 1015.9 |
| 20260510083026 | 71 | 244 | 4.0 | 7.0 | 0.00 | 0.00 | 0.00 | 63 | 1015.9 |
| 20260510082742 | 71 | 255 | 4.0 | 8.0 | 0.00 | 0.00 | 0.00 | 64 | 1015.8 |
| 20260510082013 | 70 | 236 | 4.0 | 8.0 | 0.00 | 0.00 | 0.00 | 65 | 1015.8 |
| 20260510081508 | 70 | 252 | 4.0 | 7.0 | 0.00 | 0.00 | 0.00 | 66 | 1015.7 |
| 20260510081227 | 70 | 252 | 4.0 | 7.0 | 0.00 | 0.00 | 0.00 | 67 | 1015.8 |
| 20260510080456 | 70 | 236 | 3.0 | 7.0 | 0.00 | 0.00 | 0.00 | 68 | 1015.8 |
| 20260510075951 | 70 | 296 | 3.0 | 7.0 | 0.00 | 0.00 | 0.00 | 67 | 1015.9 |
| 20260510075443 | 70 | 264 | 3.0 | 7.0 | 0.00 | 0.00 | 0.00 | 68 | 1016.0 |
| 20260510074937 | 70 | 248 | 4.0 | 6.0 | 0.00 | 0.00 | 0.00 | 69 | 1016.1 |
| 20260510074431 | 69 | 255 | 4.0 | 7.0 | 0.00 | 0.00 | 0.00 | 69 | 1016.2 |
| 20260510073926 | 69 | 238 | 3.0 | 7.0 | 0.00 | 0.00 | 0.00 | 68 | 1016.2 |
| 20260510073421 | 69 | 281 | 4.0 | 7.0 | 0.00 | 0.00 | 0.00 | 71 | 1016.2 |
| 20260510072914 | 69 | 303 | 4.0 | 8.0 | 0.00 | 0.00 | 0.00 | 71 | 1016.2 |
| 20260510072408 | 68 | 247 | 4.0 | 8.0 | 0.00 | 0.00 | 0.00 | 73 | 1016.2 |
| 20260510071901 | 68 | 279 | 4.0 | 8.0 | 0.00 | 0.00 | 0.00 | 73 | 1016.2 |
| 20260510071356 | 68 | 257 | 4.0 | 7.0 | 0.00 | 0.00 | 0.00 | 73 | 1016.3 |
| 20260510070849 | 67 | 281 | 4.0 | 7.0 | 0.00 | 0.00 | 0.00 | 74 | 1016.2 |
| 20260510070614 | 67 | 288 | 4.0 | 7.0 | 0.00 | 0.00 | 0.00 | 73 | 1016.1 |
| 20260510070058 | 67 | 299 | 5.0 | 7.0 | 0.00 | 0.00 | 0.00 | 74 | 1016.1 |
| 20260510065337 | 67 | 281 | 4.0 | 8.0 | 0.00 | 0.00 | 0.00 | 75 | 1016.1 |
| 20260510064821 | 67 | 289 | 3.0 | 8.0 | 0.00 | 0.00 | 0.00 | 76 | 1016.0 |
| 20260510064547 | 66 | 276 | 4.0 | 8.0 | 0.00 | 0.00 | 0.00 | 78 | 1015.9 |
| 20260510063809 | 66 | 277 | 3.0 | 6.0 | 0.00 | 0.00 | 0.00 | 78 | 1016.0 |
| 20260510063304 | 66 | 240 | 3.0 | 6.0 | 0.00 | 0.00 | 0.00 | 78 | 1016.0 |
| 20260510062758 | 65 | 298 | 4.0 | 6.0 | 0.00 | 0.00 | 0.00 | 80 | 1016.1 |
| 20260510062514 | 65 | 272 | 4.0 | 8.0 | 0.00 | 0.00 | 0.00 | 80 | 1016.1 |
| 20260510061746 | 65 | 285 | 4.0 | 8.0 | 0.00 | 0.00 | 0.00 | 80 | 1016.0 |
| 20260510061240 | 65 | 285 | 4.0 | 8.0 | 0.00 | 0.00 | 0.00 | 80 | 1016.1 |
| 20260510060734 | 64 | 268 | 4.0 | 8.0 | 0.00 | 0.00 | 0.00 | 81 | 1016.0 |
| 20260510060228 | 64 | 281 | 4.0 | 8.0 | 0.00 | 0.00 | 0.00 | 82 | 1015.9 |
| 20260510055721 | 64 | 275 | 4.0 | 8.0 | 0.00 | 0.00 | 0.00 | 81 | 1016.0 |
| 20260510055216 | 63 | 267 | 4.0 | 8.0 | 0.00 | 0.00 | 0.00 | 82 | 1016.0 |
| 20260510054711 | 63 | 264 | 3.0 | 7.0 | 0.00 | 0.00 | 0.00 | 84 | 1016.1 |
| 20260510054210 | 63 | 294 | 2.0 | 5.0 | 0.00 | 0.00 | 0.00 | 85 | 1016.1 |
| 20260510053710 | 63 | 274 | 2.0 | 5.0 | 0.00 | 0.00 | 0.00 | 87 | 1016.0 |
| 20260510053210 | 62 | 265 | 3.0 | 6.0 | 0.00 | 0.00 | 0.00 | 86 | 1015.9 |
| 20260510052710 | 62 | 264 | 2.0 | 6.0 | 0.00 | 0.00 | 0.00 | 87 | 1015.9 |
| 20260510052210 | 62 | 274 | 2.0 | 3.0 | 0.00 | 0.00 | 0.00 | 88 | 1015.8 |
| 20260510051708 | 62 | 274 | 2.0 | 4.0 | 0.00 | 0.00 | 0.00 | 88 | 1015.7 |
| 20260510051206 | 62 | 269 | 2.0 | 4.0 | 0.00 | 0.01 | 0.00 | 89 | 1015.7 |
| 20260510050705 | 62 | 269 | 2.0 | 4.0 | 0.00 | 0.01 | 0.00 | 89 | 1015.7 |
| 20260510050206 | 62 | 276 | 2.0 | 4.0 | 0.00 | 0.01 | 0.00 | 89 | 1015.8 |
| 20260510045929 | 62 | 306 | 2.0 | 4.0 | 0.00 | 0.01 | 0.00 | 89 | 1015.8 |
| 20260510045202 | 62 | 306 | 2.0 | 4.0 | 0.00 | 0.01 | 0.00 | 89 | 1015.7 |
| 20260510044702 | 62 | 299 | 1.0 | 4.0 | 0.00 | 0.01 | 0.00 | 91 | 1015.7 |
| 20260510044202 | 61 | 309 | 2.0 | 5.0 | 0.00 | 0.01 | 0.00 | 91 | 1015.8 |
| 20260510043659 | 61 | 321 | 3.0 | 5.0 | 0.00 | 0.01 | 0.00 | 91 | 1015.8 |
| 20260510043200 | 62 | 311 | 3.0 | 5.0 | 0.00 | 0.01 | 0.00 | 90 | 1015.8 |
| 20260510042917 | 62 | 316 | 2.0 | 5.0 | 0.00 | 0.01 | 0.00 | 90 | 1015.8 |
| 20260510042159 | 62 | 270 | 3.0 | 6.0 | 0.00 | 0.01 | 0.00 | 91 | 1015.8 |
| 20260510041700 | 62 | 274 | 3.0 | 6.0 | 0.00 | 0.01 | 0.00 | 90 | 1015.8 |
| 20260510041200 | 62 | 274 | 2.0 | 7.0 | 0.00 | 0.01 | 0.00 | 90 | 1015.8 |
| 20260510040658 | 62 | 275 | 2.0 | 7.0 | 0.00 | 0.01 | 0.00 | 90 | 1015.8 |
| 20260510040421 | 62 | 307 | 3.0 | 5.0 | 0.00 | 0.01 | 0.00 | 91 | 1015.7 |
| 20260510035656 | 62 | 300 | 3.0 | 5.0 | 0.00 | 0.01 | 0.00 | 91 | 1015.6 |
| 20260510035421 | 62 | 249 | 2.0 | 4.0 | 0.00 | 0.01 | 0.00 | 91 | 1015.5 |
| 20260510034655 | 62 | 269 | 2.0 | 4.0 | 0.00 | 0.01 | 0.00 | 91 | 1015.4 |
| 20260510034156 | 62 | 260 | 2.0 | 4.0 | 0.00 | 0.01 | 0.00 | 91 | 1015.3 |
| 20260510033656 | 62 | 250 | 2.0 | 4.0 | 0.00 | 0.01 | 0.00 | 91 | 1015.4 |
| 20260510033156 | 62 | 255 | 3.0 | 4.0 | 0.00 | 0.01 | 0.00 | 90 | 1015.2 |
| 20260510032654 | 62 | 255 | 3.0 | 5.0 | 0.00 | 0.01 | 0.00 | 90 | 1015.2 |
| 20260510032154 | 62 | 243 | 2.0 | 5.0 | 0.00 | 0.01 | 0.00 | 89 | 1015.2 |
| 20260510031654 | 62 | 256 | 2.0 | 3.0 | 0.00 | 0.01 | 0.00 | 89 | 1015.3 |
| 20260510031154 | 62 | 256 | 1.0 | 3.0 | 0.00 | 0.01 | 0.00 | 89 | 1015.2 |
| 20260510030654 | 62 | 256 | 1.0 | 2.0 | 0.00 | 0.01 | 0.00 | 90 | 1015.2 |
| 20260510030153 | 62 | 256 | 1.0 | 3.0 | 0.00 | 0.01 | 0.00 | 90 | 1015.2 |
| 20260510025651 | 62 | 256 | 1.0 | 3.0 | 0.00 | 0.01 | 0.00 | 91 | 1015.2 |
| 20260510025152 | 61 | 256 | 0.0 | 2.0 | 0.00 | 0.01 | 0.00 | 92 | 1015.2 |
| 20260510024652 | 61 | 256 | 0.0 | 1.0 | 0.00 | 0.01 | 0.00 | 92 | 1015.1 |
| 20260510024149 | 61 | 256 | 0.0 | 1.0 | 0.00 | 0.01 | 0.00 | 92 | 1015.1 |
| 20260510023649 | 61 | 256 | 0.0 | 1.0 | 0.00 | 0.01 | 0.00 | 93 | 1015.0 |
| 20260510023149 | 61 | 256 | 0.0 | 1.0 | 0.00 | 0.01 | 0.00 | 92 | 1015.0 |
| 20260510022650 | 62 | 256 | 0.0 | 1.0 | 0.00 | 0.01 | 0.00 | 92 | 1015.1 |
| 20260510022150 | 62 | 256 | 0.0 | 1.0 | 0.00 | 0.01 | 0.00 | 93 | 1015.1 |
| 20260510021650 | 62 | 256 | 0.0 | 1.0 | 0.00 | 0.01 | 0.00 | 93 | 1015.1 |
| 20260510021149 | 62 | 256 | 0.0 | 2.0 | 0.00 | 0.01 | 0.00 | 93 | 1015.0 |
| 20260510020650 | 62 | 256 | 1.0 | 3.0 | 0.00 | 0.01 | 0.00 | 92 | 1015.0 |
| 20260510020412 | 62 | 256 | 2.0 | 4.0 | 0.00 | 0.01 | 0.00 | 92 | 1015.1 |
| 20260510015903 | 62 | 256 | 3.0 | 5.0 | 0.00 | 0.01 | 0.00 | 92 | 1015.2 |
| 20260510015146 | 62 | 260 | 3.0 | 5.0 | 0.00 | 0.01 | 0.00 | 92 | 1015.1 |
| 20260510014908 | 62 | 258 | 2.0 | 5.0 | 0.00 | 0.01 | 0.00 | 91 | 1015.1 |
| 20260510014145 | 62 | 117 | 1.0 | 2.0 | 0.00 | 0.01 | 0.00 | 91 | 1015.1 |
| 20260510013908 | 62 | 117 | 0.0 | 2.0 | 0.00 | 0.01 | 0.00 | 91 | 1015.0 |
| 20260510013411 | 61 | 117 | 0.0 | 1.0 | 0.00 | 0.01 | 0.00 | 91 | 1015.1 |
| 20260510012646 | 61 | 117 | 0.0 | 0.0 | 0.00 | 0.01 | 0.00 | 90 | 1015.1 |
| 20260510012145 | 62 | 117 | 0.0 | 1.0 | 0.00 | 0.01 | 0.00 | 90 | 1015.1 |
| 20260510011638 | 62 | 117 | 0.0 | 1.0 | 0.00 | 0.01 | 0.00 | 90 | 1015.2 |
| 20260510011133 | 62 | 117 | 0.0 | 1.0 | 0.00 | 0.01 | 0.00 | 91 | 1015.2 |
| 20260510010627 | 61 | 117 | 0.0 | 0.0 | 0.00 | 0.01 | 0.00 | 91 | 1015.3 |
| 20260510010121 | 61 | 117 | 0.0 | 0.0 | 0.00 | 0.01 | 0.00 | 91 | 1015.3 |
| 20260510005621 | 61 | 117 | 0.0 | 0.0 | 0.00 | 0.01 | 0.00 | 90 | 1015.3 |
| 20260510005331 | 61 | 117 | 0.0 | 0.0 | 0.00 | 0.01 | 0.00 | 90 | 1015.3 |
| 20260510004603 | 61 | 117 | 0.0 | 1.0 | 0.00 | 0.01 | 0.00 | 90 | 1015.4 |
| 20260510004057 | 61 | 117 | 0.0 | 1.0 | 0.00 | 0.01 | 0.00 | 90 | 1015.4 |
| 20260510003550 | 61 | 117 | 0.0 | 1.0 | 0.00 | 0.01 | 0.00 | 90 | 1015.4 |
| 20260510003045 | 61 | 117 | 0.0 | 1.0 | 0.00 | 0.01 | 0.00 | 90 | 1015.4 |
| 20260510002539 | 61 | 117 | 0.0 | 1.0 | 0.00 | 0.01 | 0.00 | 90 | 1015.4 |
| 20260510002033 | 61 | 117 | 0.0 | 1.0 | 0.00 | 0.01 | 0.00 | 89 | 1015.4 |
| 20260510001527 | 61 | 117 | 0.0 | 1.0 | 0.00 | 0.01 | 0.00 | 90 | 1015.3 |
| 20260510001021 | 62 | 117 | 0.0 | 1.0 | 0.00 | 0.01 | 0.00 | 90 | 1015.4 |
| 20260510000738 | 62 | 117 | 0.0 | 1.0 | 0.00 | 0.01 | 0.00 | 90 | 1015.3 |
| 20260510000009 | 62 | 117 | 0.0 | 1.0 | 0.00 | 0.01 | 0.00 | 90 | 1015.4 |
| 20260509235726 | 62 | 117 | 0.0 | 1.0 | 0.00 | 0.01 | 0.00 | 90 | 1015.3 |
| 20260509234957 | 62 | 117 | 0.0 | 1.0 | 0.00 | 0.01 | 0.00 | 90 | 1015.3 |